Location: Newark
(43.0000°N, 1.6781°W)
Time: 22:50:10
(UTC+00:00)

Tiangong - Pass Details

Date: 04 October 2021
Orbit: 382 x 384 km, 41.5° (Epoch: 20 October)

Event Time Altitude Azimuth Distance (km) Brightness Sun altitude
Exits shadow 04:03:36 31° 109° (ESE) 690 2.8 -23.2°
Drops below altitude 10° 04:05:26 10° 100° (E) 1,396 4.8 -22.9°
Sets 04:07:30 0° 97° (E) 2,247 6.1 -22.6°
